Date String (YYYY-MM-DD hh:mm:ss) UTC,Instrument flags,Ambient pressure (hPa),Sample flow (lpm),Bypass flow (lpm),Sample temperature (°C),Ambient temperature (°C),ASC tube jacket temperature (°C),LED temperature (°C),Box temperature (°C),Sample RH (%),Span deviation,Mass concentration (μg/m³),Mass concentration (μg/m³),Mass concentration (μg/m³)
DateTimeUTC,F1_M11,P_M11,Q1_M11,Q2_M11,T1_M11,T2_M11,T3_M11,T4_M11,T5_M11,U1_M11,ZSPAN_M11,X0_M11,X2_M11,X1_M11
2021-08-27 14:00:00,,0826.7,4.99,0.00,30.0,28.9,00.0,39.1,31.8,21.5,0000.0,0006.49,0003.32,0003.05
2021-08-27 14:01:00,,0826.7,5.01,0.00,30.0,29.0,00.0,39.1,31.8,21.5,0000.0,0006.46,0003.32,0003.05
2021-08-27 14:02:00,,0826.7,5.01,0.00,30.1,29.0,00.0,39.1,31.8,22.0,0000.0,0006.42,0003.32,0003.06
2021-08-27 14:03:00,,0826.8,5.00,0.00,30.1,29.1,00.0,39.1,31.9,21.0,0000.0,0005.41,0003.32,0003.04
2021-08-27 14:04:00,,0826.7,5.01,0.00,30.1,29.2,00.0,39.1,31.9,21.0,0001.3,0005.18,0003.32,0003.03
2021-08-27 14:05:00,,0826.9,5.00,0.00,30.1,29.2,00.0,39.1,31.9,20.8,0000.8,0005.25,0003.32,0003.02
2021-08-27 14:06:00,,0826.7,5.00,0.00,30.2,29.2,00.0,39.2,31.9,20.8,0000.8,0005.43,0003.34,0003.01
2021-08-27 14:07:00,,0826.8,5.01,0.00,30.1,27.9,00.0,39.1,31.6,21.0,0000.9,0005.33,0003.31,0002.99
2021-08-27 14:08:00,,0826.7,5.01,0.00,30.0,26.5,00.0,39.1,31.3,21.1,0001.1,0005.42,0003.31,0002.98
2021-08-27 14:09:00,,0826.7,4.99,0.00,29.9,26.7,00.0,39.1,31.3,21.6,0001.2,0005.48,0003.31,0002.97
2021-08-27 14:10:00,,0826.7,4.98,0.00,29.8,27.1,00.0,39.1,31.3,21.4,0000.5,0005.38,0003.28,0002.95
2021-08-27 14:11:00,,0826.7,5.01,0.00,29.8,27.5,00.0,39.0,31.4,21.7,0000.1,0005.40,0003.27,0002.92
2021-08-27 14:12:00,,0826.7,4.99,0.00,29.8,27.8,00.0,39.0,31.4,21.6,0000.0,0005.45,0003.28,0002.92
2021-08-27 14:13:00,,0826.7,5.01,0.00,29.8,28.0,00.0,39.0,31.5,22.2,0000.0,0005.46,0003.26,0002.91
2021-08-27 14:14:00,,0826.7,5.00,0.00,29.8,28.2,00.0,39.0,31.5,22.1,0000.0,0005.54,0003.23,0002.90
2021-08-27 14:15:00,,0826.7,5.01,0.00,29.8,28.4,00.0,39.0,31.5,22.0,0000.0,0005.40,0003.21,0002.89
2021-08-27 14:16:00,,0826.7,5.01,0.00,29.9,28.6,00.0,39.0,31.6,21.6,0000.0,0004.67,0003.20,0002.90
2021-08-27 14:17:00,,0826.7,4.99,0.00,29.9,28.7,00.0,39.0,31.6,20.9,0000.0,0004.52,0003.17,0002.90
2021-08-27 14:18:00,,0826.7,4.99,0.00,29.9,28.8,00.0,39.0,31.7,20.9,0000.0,0004.63,0003.19,0002.90
2021-08-27 14:19:00,,0826.7,5.01,0.00,29.9,28.9,00.0,39.0,31.7,20.8,0000.0,0004.63,0003.20,0002.91
2021-08-27 14:20:00,,0826.7,5.00,0.00,30.0,29.0,00.0,39.0,31.8,20.7,0000.0,0004.66,0003.20,0002.92
2021-08-27 14:21:00,,0826.7,5.00,0.00,30.0,29.0,00.0,39.0,31.8,20.8,0001.4,0004.75,0003.22,0002.93
2021-08-27 14:22:00,,0826.7,4.99,0.00,30.0,29.0,00.0,39.0,31.8,21.1,0002.2,0004.93,0003.24,0002.94
2021-08-27 14:23:00,,0826.7,5.01,0.00,30.0,27.7,00.0,39.0,31.5,21.4,0002.0,0004.84,0003.22,0002.92
2021-08-27 14:24:00,,0826.7,5.00,0.00,29.8,26.4,00.0,39.0,31.2,21.3,0002.0,0004.80,0003.20,0002.90
2021-08-27 14:25:00,,0826.7,4.99,0.00,29.8,26.6,00.0,39.0,31.2,21.3,0001.7,0004.42,0003.19,0002.90
2021-08-27 14:26:00,,0826.7,5.00,0.00,29.7,27.0,00.0,38.9,31.2,21.7,0001.7,0004.41,0003.19,0002.89
2021-08-27 14:27:00,,0826.7,5.01,0.00,29.7,27.4,00.0,38.9,31.3,21.8,0001.6,0004.38,0003.17,0002.89
2021-08-27 14:28:00,,0826.7,5.00,0.00,29.7,27.7,00.0,38.9,31.3,21.3,0001.3,0004.36,0003.16,0002.88
2021-08-27 14:29:00,,0826.8,4.98,0.00,29.7,28.0,00.0,38.9,31.4,22.3,0002.0,0004.42,0003.17,0002.88
2021-08-27 14:30:00,,0826.8,5.00,0.00,29.7,28.2,00.0,38.9,31.4,22.1,0002.4,0004.35,0003.15,0002.88
2021-08-27 14:31:00,,0826.9,5.00,0.00,29.8,28.4,00.0,38.9,31.5,24.0,0002.3,0004.44,0003.16,0002.88
2021-08-27 14:32:00,,0826.8,4.99,0.00,29.8,28.6,00.0,38.9,31.5,26.3,0002.4,0006.58,0003.19,0002.87
2021-08-27 14:33:00,,0826.9,5.00,0.00,29.8,28.7,00.0,38.9,31.6,25.6,0002.4,0006.64,0003.19,0002.88
2021-08-27 14:34:00,,0826.8,5.00,0.00,29.8,28.8,00.0,38.9,31.6,25.3,0002.5,0006.83,0003.22,0002.91
2021-08-27 14:35:00,,0826.8,5.00,0.00,29.9,28.9,00.0,38.9,31.7,26.8,0002.3,0007.45,0003.24,0002.92
2021-08-27 14:36:00,,0826.8,5.00,0.00,29.9,29.0,00.0,38.9,31.7,24.9,0002.6,0007.55,0003.25,0002.92
2021-08-27 14:37:00,,0826.7,5.01,0.00,30.0,29.1,00.0,38.9,31.8,24.6,0002.8,0008.01,0003.28,0002.94
2021-08-27 14:38:00,,0826.7,5.00,0.00,30.0,29.1,00.0,39.0,31.8,24.3,0002.6,0008.45,0003.30,0002.94
2021-08-27 14:39:00,,0826.7,5.01,0.00,30.0,27.8,00.0,39.0,31.5,23.7,0002.6,0008.52,0003.32,0002.95
2021-08-27 14:40:00,,0826.7,4.99,0.00,29.8,26.5,00.0,38.9,31.1,23.3,0002.7,0008.53,0003.33,0002.96
2021-08-27 14:41:00,,0826.7,5.00,0.00,29.7,26.7,00.0,38.9,31.1,23.5,0002.8,0008.59,0003.36,0002.97
2021-08-27 14:42:00,,0826.7,4.99,0.00,29.7,27.1,00.0,38.9,31.2,23.4,0002.9,0008.55,0003.36,0002.98
2021-08-27 14:43:00,,0826.7,5.00,0.00,29.7,27.5,00.0,38.9,31.3,23.5,0002.9,0007.58,0003.33,0002.96
2021-08-27 14:44:00,,0826.7,5.01,0.00,29.7,27.8,00.0,38.8,31.3,24.0,0001.7,0007.37,0003.33,0002.96
2021-08-27 14:45:00,,0826.7,4.99,0.00,29.7,28.1,00.0,38.8,31.4,24.3,0000.0,0007.45,0003.34,0002.94
2021-08-27 14:46:00,,0826.7,5.01,0.00,29.7,28.3,00.0,38.8,31.5,27.9,0000.0,0007.13,0003.36,0002.94
2021-08-27 14:47:00,,0826.7,5.00,0.00,29.8,28.5,00.0,38.8,31.5,27.6,0000.0,0007.35,0003.36,0002.96
2021-08-27 14:48:00,,0826.7,5.00,0.00,29.8,28.6,00.0,38.8,31.6,27.2,0000.0,0007.17,0003.37,0002.96
2021-08-27 14:49:00,,0826.7,5.00,0.00,29.8,28.8,00.0,38.8,31.7,26.5,0000.0,0007.43,0003.38,0002.97
2021-08-27 14:50:00,,0826.7,4.99,0.00,29.9,28.9,00.0,38.9,31.7,26.8,0000.0,0008.19,0003.40,0002.98
2021-08-27 14:51:00,,0826.7,5.00,0.00,29.9,29.0,00.0,38.9,31.8,26.9,0000.0,0008.26,0003.40,0002.98
2021-08-27 14:52:00,,0826.7,5.01,0.00,29.9,28.3,00.0,38.9,31.6,28.0,0000.0,0008.36,0003.43,0003.00
2021-08-27 14:53:00,,0826.7,4.99,0.00,29.8,26.7,00.0,38.9,31.1,28.0,0000.0,0009.09,0003.46,0002.99
2021-08-27 14:54:00,,0826.7,5.00,0.00,29.7,26.4,00.0,38.8,31.0,29.7,0000.0,0009.99,0003.51,0003.01
2021-08-27 14:55:00,,0826.7,4.99,0.00,29.6,26.8,00.0,38.8,31.1,29.7,0000.0,0010.59,0003.53,0003.03
2021-08-27 14:56:00,,0826.7,5.01,0.00,29.6,27.3,00.0,38.8,31.2,29.4,0000.0,0010.73,0003.55,0003.05
2021-08-27 14:57:00,,0826.7,5.01,0.00,29.6,27.6,00.0,38.8,31.3,29.5,0000.0,0011.40,0003.55,0003.05
2021-08-27 14:58:00,,0826.7,4.99,0.00,29.6,27.9,00.0,38.7,31.3,29.5,0000.0,0011.93,0003.56,0003.05
2021-08-27 14:59:00,,0826.7,5.00,0.00,29.6,28.2,00.0,38.7,31.4,28.3,0000.0,0011.63,0003.58,0003.06
